Sparrow
1 43881U 18111F 21203.31369457 .00000104 00000-0 14094-4 0 9999
2 43881 97.6857 110.5886 0012395 352.8103 7.2939 14.96973631140306
Lume 1
1 43908U 18111AJ 21203.27258656 .00001729 00000-0 68888-4 0 9996
2 43908 97.2297 96.8670 0020735 163.0463 197.1474 15.26359286142982
FO-98
1 43933U 19003B 21203.08568515 .00014016 00000-0 51740-3 0 9993
2 43933 97.1811 243.2088 0013629 267.5496 92.4183 15.27778151139394
FO-99
1 43937U 19003F 21203.34178809 .00002150 00000-0 86091-4 0 9993
2 43937 97.1740 245.1242 0021362 246.9161 112.9826 15.25904177139585
MYSat 1
1 44045U 18092F 21203.31496066 .00004270 00000-0 11402-3 0 9994
2 44045 51.6371 256.0156 0010243 336.3620 23.6893 15.40301998136832
AstroCast 0.2
1 44083U 19018F 21203.40133814 .00001862 00000-0 82762-4 0 9996
2 44083 97.3707 263.8262 0012114 202.4856 157.5851 15.22707481128212
AISTechSat 3
1 44103U 19018AB 21203.46917505 .00001079 00000-0 47149-4 0 9992
2 44103 97.3569 264.2961 0011875 214.8586 260.8827 15.24171779128344
AISat 1
1 44104U 19018AC 21203.21792478 .00001457 00000-0 47392-4 0 9996
2 44104 97.4248 280.5799 0055204 230.5386 129.0965 15.32173155128996
Raavana-1
1 44329U 98067QE 21202.45159272 .00085679 00000-0 41479-3 0 9997
2 44329 51.6347 109.0317 0004027 85.1855 274.9607 15.81772748119530
Uguisu
1 44330U 98067QF 21203.09616582 .00081811 00000-0 40929-3 0 9995
2 44330 51.6298 106.4728 0003990 84.5980 275.5477 15.81080219119609
NepaliSat-1
1 44331U 98067QG 21203.14493399 .00076168 00000-0 36991-3 0 9994
2 44331 51.6321 105.3044 0003868 88.4036 271.7410 15.81751197119633
Prox-1
1 44339U 19036A 21203.17324954 .00001019 00000-0 18928-3 0 9997
2 44339 24.0002 115.5269 0011424 198.7742 161.2328 14.53642874110236
Oculus-ASR
1 44348U 19036K 21203.44399635 .00016968 00000-0 22589-3 0 9992
2 44348 28.5138 260.8945 0325669 285.9369 70.5575 15.13213014114218
Armadillo
1 44352U 19036P 21203.36895294 .00027357 00000-0 33794-3 0 9994
2 44352 28.5273 237.4353 0292600 322.2704 35.7701 15.21431882114399
NO-104
1 44354U 19036R 21203.43704713 .00018123 00000-0 23556-3 0 9995
2 44354 28.5294 253.6128 0320512 295.6514 61.1303 15.14768800114284
NO-103
1 44355U 19036S 21203.34212622 .00044386 -55566-5 45232-3 0 9997
2 44355 28.5249 203.2256 0252837 17.8478 343.0817 15.32513210114785
CP9
1 44360U 19036X 21203.06751937 .00101833 -37515-5 58081-3 0 9990
2 44360 28.5005 129.9409 0161479 139.2101 222.0716 15.61098745115359
Move-IIb
1 44398U 19038N 21203.60958284 .00001662 00000-0 95225-4 0 9991
2 44398 97.5854 167.4641 0023703 184.3573 175.7450 15.13789640113089
SONATE
1 44400U 19038Q 21203.83942311 .00000507 00000-0 32659-4 0 9993
2 44400 97.5925 167.5389 0024462 184.7319 175.3686 15.12607215113080
BeeSat 9
1 44412U 19038AC 21203.64648569 .00001659 00000-0 96290-4 0 9993
2 44412 97.5901 167.6491 0021692 188.5697 171.5167 15.13383183112778
JAISAT-1
1 44419U 19038F 21203.40669988 .00001355 00000-0 78291-4 0 9996
2 44419 97.5905 167.9853 0020621 187.2923 172.8012 15.13865928113083
LightSail-2
1 44420U 19036AC 21203.36863372 .00006400 00000-0 12556-2 0 9990
2 44420 24.0045 91.3266 0020839 220.6024 139.2914 14.60093514108603
Taurus 1
1 44530U 19059C 21203.73757986 .00000471 00000-0 14429-3 0 9995
2 44530 98.5526 294.3833 0014428 42.4762 317.7541 14.46112633 98184
Duchifat 3
1 44854U 19089C 21203.81842427 .00000324 00000-0 32276-4 0 9999
2 44854 36.9680 251.4893 0007445 57.8271 302.3197 14.99543487 88411
OPS-SAT
1 44878U 19092F 21203.42334791 .00001258 00000-0 67622-4 0 9996
2 44878 97.4757 26.4089 0015044 53.0514 307.2094 15.16619901 88137
TO-108
1 44881U 19093C 21203.79183663 .00000061 00000-0 14499-4 0 9996
2 44881 97.9238 282.2354 0015119 172.6270 187.5174 14.81464475 85968
FloripaSat 1
1 44885U 19093G 21203.79240701 .00000264 00000-0 39692-4 0 9994
2 44885 97.9260 282.8724 0014747 180.1961 179.9252 14.82329168 86009
RS-44
1 44909U 19096E 21203.18386857 .00000016 00000-0 20551-4 0 9999
2 44909 82.5208 89.7393 0217834 12.2092 348.4169 12.79710886 73265
SwampSat-2
1 45115U 19071E 21203.59747293 .00097016 00000-0 12806-2 0 9990
2 45115 51.6323 200.2613 0008404 60.0620 300.1205 15.57551166 82915
HO-107
1 45119U 19071J 21203.48694512 .00003857 00000-0 11895-3 0 9995
2 45119 51.6404 226.9881 0011777 57.4329 302.7789 15.36023271 82557
Phoenix
1 45258U 98067RB 21203.28241108 .00010712 00000-0 15034-3 0 9995
2 45258 51.6381 154.5427 0005982 31.5565 328.5785 15.57307387 80638
AztechSat-1
1 45261U 98067RE 21203.11827215 .00042450 00000-0 38464-3 0 9996
2 45261 51.6347 142.1562 0006530 54.5386 305.6219 15.67582804 80811
QARMAN
1 45263U 98067RG 21203.38287172 .00026164 00000-0 28576-3 0 9996
2 45263 51.6370 146.9641 0006537 47.5115 312.6431 15.63136401 80805
Quetzal 1
1 45598U 98067RL 21203.28028715 .00021487 00000-0 25646-3 0 9990
2 45598 51.6385 152.3067 0002606 99.8133 260.3155 15.60981237 69999
BY70-2
1 45857U 20042B 21203.60003102 .00001135 00000-0 16774-3 0 9995
2 45857 97.9828 278.9831 0012840 100.6354 259.6315 14.77126312 56732
UPMSat 2
1 46276U 20061E 21203.19111977 .00000757 00000-0 42208-4 0 9997
2 46276 97.4310 276.2703 0000833 151.1138 209.0141 15.16523706 48805
AmicalSat
1 46287U 20061R 21203.28616907 .00001105 00000-0 70810-4 0 9990
2 46287 97.4864 275.7889 0002502 14.3359 345.7941 15.10547498 48602
SALSAT
1 46495U 20068K 21203.26872656 -.00000062 00000-0 48984-7 0 9993
2 46495 97.6936 140.5615 0015825 321.2888 38.7204 15.03492657 44560
BY70-3
1 46839U 20079N 21203.55054281 .00003226 00000-0 10055-3 0 9993
2 46839 97.2394 276.7129 0009026 84.3214 28.4986 15.33924662 39582
SPOC
1 46921U 98067RR 21203.36131226 .00010715 00000-0 16348-3 0 9993
2 46921 51.6405 161.8696 0001253 179.0416 181.0578 15.55028050 40297
Bobcat-1
1 46922U 98067RS 21203.39857684 .00016070 00000-0 22437-3 0 9996
2 46922 51.6414 159.8924 0000731 166.5232 193.5780 15.57033233 40289
Neutron-1
1 46923U 98067RT 21203.31546734 .00010259 00000-0 15757-3 0 9990
2 46923 51.6405 162.3106 0000961 200.3308 159.7645 15.54895577 40319
CAPE 3
1 47309U 21002A 21203.42364842 .00002466 00000-0 12009-3 0 9992
2 47309 60.6830 161.2002 0045626 67.2001 293.3895 15.20882038 28207
AO-109
1 47311U 21002C 21203.31392648 .00001567 00000-0 79325-4 0 9994
2 47311 60.6839 160.6895 0039702 66.1717 294.3523 15.21757653 28172
MiTEE 1
1 47314U 21002F 21203.35063944 .00004225 00000-0 18455-3 0 9995
2 47314 60.6841 159.1188 0039958 58.4815 302.0166 15.23301768 28222
ExoCube 2
1 47319U 21002L 21203.42444924 .00002201 00000-0 10740-3 0 9990
2 47319 60.6831 160.6367 0042013 67.5733 292.9795 15.21385843 28159
UVSQ-SAT
1 47438U 21006AB 21203.42931353 .00001147 00000-0 68141-4 0 9990
2 47438 97.4852 264.0245 0012111 344.7132 15.3732 15.13220411 27343
YUSAT 1
1 47439U 21006AC 21203.69611684 .00001638 00000-0 95729-4 0 9999
2 47439 97.4856 264.2858 0011930 344.1950 15.8907 15.13227451 27384
SOMP 2b
1 47445U 21006AJ 21203.77807256 .00001367 00000-0 80861-4 0 9997
2 47445 97.4825 264.2582 0011807 347.8486 12.2458 15.13059395 27391
IDEASSat
1 47458U 21006AX 21203.13277810 .00000964 00000-0 58350-4 0 9998
2 47458 97.4917 263.8052 0010904 348.5510 11.5471 15.12919508 27293
RSP-01
1 47925U 98067SB 21203.33371825 .00010537 00000-0 17770-3 0 9998
2 47925 51.6409 166.9170 0002038 136.3052 223.8099 15.52252430 20191
TAUSAT-1
1 47926U 98067SC 21203.61341426 .00017322 00000-0 27948-3 0 9991
2 47926 51.6403 165.0338 0002900 145.5139 214.6040 15.52996938 20235
Tsuru
1 47927U 98067SD 21203.27814047 .00009641 00000-0 16458-3 0 9997
2 47927 51.6410 167.2959 0002138 136.1391 223.9769 15.52023672 20187
